THOR ABLESTAR DEB, 260

Orbit data source: Space-Track

THOR ABLESTAR DEB, 260 is space debris in LEO originally from a launch on Thu, 29 Jun 1961 UTC launched from the Air Force Eastern Test Range (AFETR). Debris objects in space refer to the collection of defunct objects orbiting the Earth. Examples of debris include non-operational satellites, rocket bodies, and fragments generated from explosions, collisions, or faulty payload assembly.

Loading next visibility...
Identifier
260, 1961-015CG
Orbit
LEO
Country
Flag of USUS
Related business
Manufacturer
Unknown
Mission
Spacecraft
Bus & Motor
Unknown
Mass
Unknown
Launch date (UTC)
1961-06-29 (64 years ago)
Launch vehicle
Unknown
Launch site
Air Force Eastern Test Range (AFETR)
Object type
Payload
Rocket body
Debris
Shape & HBR
Unknown shape, 0.1 m
Radar Cross Section
Small (<0.1 m²)

Expand to show TLE details & history
Last TLE update: 1 day ago

TLE from 1 day ago
0 THOR ABLESTAR DEB
1 00260U 61015CG  25354.29810152  .00001618  00000-0  49609-3 0  9995
2 00260  66.7675 318.3880 0050378 255.3539 104.1979 14.43524866330519
Epoch: 2025-12-20T07:09Z
TLE epoch observation values (Epoch: 2025-12-20T07:09:15.971Z)
Latitude
0.00005°
Longitude
121.94456°
Altitude
757.976 km
Speed
7.471 km/s
True Right ascension
21h 13m 33s
True Declination
0° 00' 00"
Sunlit
Object was in daylight at epoch
Visualization orbit readout
Latitude
Unknown
Longitude
Unknown
Altitude
Unknown
Speed
Unknown
Apparent Right ascension
Unknown
Apparent Declination
Unknown
Sunlit
N/A
Visualization observer readout
Local Sidereal Time
14:00:48
Azimuth
Unknown
Elevation
Unknown
Doppler factor
Unknown
Orbital elements
Apogee altitude
781.119 km
Perigee altitude
709.347 km
Semi-major axis
7,123.37 km
Eccentricity
0.00504
Inclination
66.7675°
RAAN
318.388°
Arg. of periapsis
255.3539°
True anomaly
104.75668°
Mean anomaly
104.1979°
Eccentric anomaly
104.47738°
Mean motion
3.61006 °/min
Orbital period
99.72 mins
BSTAR
0.00049609
Loading maneuver chart data...
Computing Atmospheric mass density...

Documentation

Showing up to 5 results
|